Meridian, MS

5:17 AM CST on December 06, 2019 (GMT -0600)
Key

Weather History for KMEI - October, 2019

Change the Weather History Date:

Friday, October 11, 2019

  Actual Average Record
Temperature  
Mean Temperature 76 °F 66 °F  
Max Temperature 90 °F 79 °F 90 °F (1954)
Min Temperature 63 °F 53 °F 34 °F (1964)
Degree Days  
Heating Degree Days 0 3  
Month to date heating degree days 0 19  
Since 1 July heating degree days 0 26  
Cooling Degree Days 12 3  
Month to date cooling degree days 180 49  
Year to date cooling degree days 2812 1972  
Growing Degree Days 26 (Base 50)    
Moisture  
Dew Point 68 °F    
Average Humidity 80    
Maximum Humidity 93    
Minimum Humidity 50    
Precipitation  
Precipitation 1.41 in 0.11 in 1.92 in (1900)
Month to date precipitation 1.41 1.26  
Year to date precipitation 44.59 43.65  
Sea Level Pressure  
Sea Level Pressure 30.02 in    
Wind  
Wind Speed 6 mph ()    
Max Wind Speed 20 mph    
Max Gust Speed 23 mph    
Visibility 8.5 miles    
Events Rain , Thunderstorm    
T = Trace of Precipitation, MM = Missing Value Source: Averaged Metar Reports

Daily Weather History Graph

Daily Weather History Graph

Search for Another Location

Airport or City:

Astronomy

Oct. 11, 2019 Rise Set
Actual Time 6:55 AM CDT 6:27 PM CDT
Civil Twilight 6:31 AM CDT 6:51 PM CDT
Nautical Twilight 6:02 AM CDT 7:20 PM CDT
Astronomical Twilight 5:34 AM CDT 7:48 PM CDT
Moon 5:46 PM CDT (10/11) 4:48 AM CDT (10/11)
Length of Visible Light 12h 20m
Length of Day
11h 31m
Waxing Gibbous, 96% of the Moon is Illuminated
Oct 11
Waxing Gibbous
Oct 13
Full
Oct 21
Last Quarter
Oct 27
New
Nov 4
First Quarter

Hourly Weather History & Observations

Time (CDT) Temp. Heat Index Dew Point Humidity Pressure Visibility Wind Dir Wind Speed Gust Speed Precip Events Conditions
12:58 AM 77.0 °F - 63.0 °F 62% 30.00 in 10.0 mi South 6.9 mph - N/A   Overcast
1:58 AM 75.9 °F - 64.0 °F 67% 30.00 in 10.0 mi South 3.5 mph - N/A   Mostly Cloudy
2:58 AM 73.0 °F - 64.0 °F 73% 29.99 in 10.0 mi SSE 3.5 mph - N/A   Scattered Clouds
3:58 AM 71.1 °F - 64.0 °F 78% 30.00 in 10.0 mi Calm Calm - N/A   Clear
4:58 AM 70.0 °F - 64.9 °F 84% 30.01 in 10.0 mi Calm Calm - N/A   Clear
6:58 AM 69.1 °F - 64.9 °F 87% 30.02 in 10.0 mi Calm Calm - N/A   Partly Cloudy
7:58 AM 73.0 °F - 66.9 °F 81% 30.03 in 10.0 mi Calm Calm - N/A   Scattered Clouds
8:58 AM 77.0 °F - 64.9 °F 66% 30.04 in 10.0 mi SE 4.6 mph - N/A   Scattered Clouds
9:58 AM 81.0 °F 83.0 °F 66.0 °F 60% 30.04 in 10.0 mi SSE 9.2 mph - N/A   Overcast
10:58 AM 82.9 °F 85.4 °F 66.9 °F 58% 30.04 in 10.0 mi SSE 12.7 mph - N/A   Mostly Cloudy
11:58 AM 86.0 °F 90.1 °F 69.1 °F 57% 30.04 in 10.0 mi SSE 10.4 mph 18.4 mph N/A   Scattered Clouds
12:58 PM 87.1 °F 91.3 °F 69.1 °F 55% 30.00 in 10.0 mi SSE 9.2 mph - N/A   Mostly Cloudy
1:58 PM 84.9 °F 88.8 °F 69.1 °F 59% 29.96 in 10.0 mi South 10.4 mph - 0.00 in Rain Light Rain
2:58 PM 87.1 °F 90.6 °F 68.0 °F 53% 29.94 in 10.0 mi ESE 5.8 mph - 0.00 in   Partly Cloudy
3:58 PM 87.1 °F 89.9 °F 66.9 °F 51% 29.94 in 10.0 mi SSW 6.9 mph - N/A   Mostly Cloudy
4:14 PM 87.1 °F 90.6 °F 68.0 °F 53% 29.95 in 10.0 mi SSE 6.9 mph - N/A Thunderstorm Overcast
4:58 PM 75.0 °F - 70.0 °F 84% 29.97 in 10.0 mi SSW 10.4 mph - 0.00 in Rain , Thunderstorm Light Rain
5:24 PM 73.9 °F - 70.0 °F 87% 29.98 in 5.0 mi South 15.0 mph - 0.02 in Rain Heavy Rain
5:58 PM 73.9 °F - 70.0 °F 87% 30.00 in 5.0 mi NW 8.1 mph - 0.05 in   Overcast
6:02 PM 73.9 °F - 70.0 °F 87% 30.01 in 10.0 mi NNW 10.4 mph - N/A Thunderstorm Overcast
6:12 PM 73.9 °F - 70.0 °F 87% 30.03 in 2.5 mi NW 9.2 mph - 0.02 in Rain , Thunderstorm Heavy Thunderstorms and Rain
6:20 PM 73.0 °F - 70.0 °F 90% 30.04 in 1.2 mi NW 9.2 mph - 0.19 in Rain , Thunderstorm Heavy Thunderstorms and Rain
6:29 PM 73.0 °F - 70.0 °F 90% 30.04 in 1.0 mi North 6.9 mph - 0.53 in Rain , Thunderstorm Heavy Rain
6:54 PM 73.4 °F - 69.8 °F 88% 30.04 in 2.0 mi North 5.8 mph - 1.23 in Rain Heavy Rain
6:58 PM 73.0 °F - 70.0 °F 90% 30.04 in 2.5 mi North 4.6 mph - 1.27 in Rain Heavy Rain
7:05 PM 73.0 °F - 70.0 °F 90% 30.04 in 5.0 mi NE 6.9 mph - 0.02 in Rain Rain
7:21 PM 73.0 °F - 70.0 °F 90% 30.04 in 7.0 mi ENE 8.1 mph - 0.09 in Rain Light Rain
7:50 PM 73.0 °F - 70.0 °F 90% 30.05 in 10.0 mi North 4.6 mph - 0.09 in   Overcast
7:58 PM 73.0 °F - 69.1 °F 87% 30.04 in 10.0 mi NNE 5.8 mph - 0.09 in   Mostly Cloudy
8:21 PM 73.0 °F - 70.0 °F 90% 30.03 in 10.0 mi NE 5.8 mph - N/A   Scattered Clouds
8:31 PM 73.0 °F - 69.1 °F 87% 30.03 in 10.0 mi NE 3.5 mph - N/A   Scattered Clouds
8:58 PM 73.0 °F - 69.1 °F 87% 30.03 in 10.0 mi North 3.5 mph - N/A   Mostly Cloudy
9:40 PM 72.0 °F - 69.1 °F 91% 30.06 in 10.0 mi NW 3.5 mph - N/A   Mostly Cloudy
9:58 PM 72.0 °F - 69.1 °F 91% 30.05 in 10.0 mi NW 3.5 mph - N/A   Overcast
10:23 PM 72.0 °F - 69.1 °F 91% 30.07 in 10.0 mi North 4.6 mph - N/A   Overcast
10:44 PM 72.0 °F - 69.1 °F 91% 30.06 in 10.0 mi NNW 3.5 mph - N/A   Overcast
10:58 PM 72.0 °F - 69.1 °F 91% 30.05 in 10.0 mi NW 4.6 mph - N/A   Overcast
11:13 PM 72.0 °F - 69.1 °F 91% 30.07 in 10.0 mi Calm Calm - N/A   Overcast
11:23 PM 69.1 °F - 64.9 °F 87% 30.07 in 10.0 mi NNW 18.4 mph - N/A   Overcast
11:32 PM 66.9 °F - 64.0 °F 90% 30.08 in 10.0 mi NW 15.0 mph - N/A   Overcast
11:58 PM 64.9 °F - 61.0 °F 87% 30.06 in 9.0 mi NNW 11.5 mph - N/A   Overcast